Weather History for KD07 - November, 2012

Change the Weather History Date:

Thursday, November 1, 2012

  Actual Average Record
Temperature  
Mean Temperature 35 °F 40 °F  
Max Temperature 38 °F 51 °F - ()
Min Temperature 31 °F 29 °F - ()
Degree Days  
Heating Degree Days 30 25  
Month to date heating degree days 30 25  
Since 1 July heating degree days 764 824  
Cooling Degree Days 0 0  
Month to date cooling degree days 0 0  
Year to date cooling degree days 971 635  
Moisture  
Dew Point 36 °F    
Average Humidity 96    
Maximum Humidity 100    
Minimum Humidity 92    
Precipitation  
Precipitation 0.00 in 0.04 in - ()
Month to date precipitation 0.00 0.04  
Year to date precipitation 12.32 16.77  
Sea Level Pressure  
Sea Level Pressure 30.03 in    
Wind  
Wind Speed 11 mph (ESE)    
Max Wind Speed 22 mph    
Max Gust Speed 28 mph    
T = Trace of Precipitation, MM = Missing Value Source: NWS Daily Summary

Daily Weather History Graph

Daily Weather History Graph

Search for Another Location

Airport or City:

Trip Planner

Search our weather history database for the weather conditions in past years. The results will help you decide how hot, cold, wet, or windy it might be!

Date:

Astronomy

Nov. 01, 2012 Rise Set
Actual Time 7:27 AM MDT 5:35 PM MDT
Civil Twilight 6:56 AM MDT 6:05 PM MDT
Nautical Twilight 6:21 AM MDT 6:40 PM MDT
Astronomical Twilight 5:47 AM MDT 7:14 PM MDT
Moon 7:28 PM MDT (11/1) 10:07 AM MDT (11/1)
Length of Visible Light 11h 09m
Length of Day
10h 07m
Waning Gibbous, 92% of the Moon is Illuminated
Nov 1
Waning Gibbous
Nov 6
Last Quarter
Nov 13
New
Nov 20
First Quarter
Nov 28
Full

Hourly Weather History & Observations

Time (MDT) Temp. Windchill Dew Point Humidity Pressure Visibility Wind Dir Wind Speed Gust Speed Precip Events Conditions
12:56 AM 37.9 °F 31.5 °F 37.9 °F 100% 30.11 in - ENE 9.2 mph - N/A   Unknown
1:56 AM 37.0 °F 29.8 °F 37.0 °F 100% 30.10 in - ENE 10.4 mph - N/A   Unknown
2:56 AM 35.1 °F 30.1 °F 35.1 °F 100% 30.11 in - East 5.8 mph - N/A   Unknown
3:56 AM 35.1 °F 30.1 °F 34.0 °F 96% 30.09 in - East 5.8 mph - N/A   Unknown
4:56 AM 35.1 °F 28.6 °F 35.1 °F 100% 30.09 in - East 8.1 mph - N/A   Unknown
5:56 AM 35.1 °F 27.4 °F 34.0 °F 96% 30.09 in - ESE 10.4 mph - N/A   Unknown
6:56 AM 34.0 °F 26.0 °F 34.0 °F 100% 30.09 in - ESE 10.4 mph - N/A   Unknown
7:56 AM 35.1 °F 27.4 °F 35.1 °F 100% 30.10 in - ESE 10.4 mph - N/A   Unknown
8:56 AM 36.0 °F 28.0 °F 36.0 °F 100% 30.09 in - SE 11.5 mph - N/A   Unknown
9:56 AM 37.9 °F 29.2 °F 37.0 °F 97% 30.08 in - ESE 15.0 mph - N/A   Unknown
10:56 AM 37.9 °F 29.2 °F 37.9 °F 100% 30.06 in - SE 15.0 mph 21.9 mph N/A   Unknown
11:56 AM 37.9 °F 28.5 °F 37.9 °F 100% 30.05 in - SE 17.3 mph - N/A   Unknown
12:56 PM 37.9 °F 27.6 °F 37.9 °F 100% 30.02 in - SE 20.7 mph 24.2 mph N/A   Unknown
1:56 PM 36.0 °F 25.6 °F 35.1 °F 97% 29.98 in - SE 18.4 mph 27.6 mph N/A   Unknown
2:56 PM 36.0 °F 26.3 °F - N/A% 29.97 in - SE 16.1 mph 24.2 mph N/A   Unknown
3:56 PM 37.9 °F 32.7 °F - N/A% 29.99 in - SSE 6.9 mph - N/A   Unknown
4:56 PM 37.0 °F 29.8 °F - N/A% 29.96 in - SSE 10.4 mph - N/A   Unknown
5:56 PM 35.1 °F 30.1 °F - N/A% 29.96 in - ESE 5.8 mph - N/A   Unknown
6:56 PM 35.1 °F 30.1 °F - N/A% 29.99 in - SE 5.8 mph - N/A   Unknown
7:56 PM 33.1 °F 28.7 °F - N/A% 29.98 in - East 4.6 mph - N/A   Unknown
8:56 PM 33.1 °F 26.1 °F - N/A% 29.98 in - East 8.1 mph - N/A   Unknown
9:56 PM 33.1 °F 24.9 °F - N/A% 29.97 in - East 10.4 mph - N/A   Unknown
10:56 PM 33.1 °F 23.9 °F - N/A% 29.97 in - East 12.7 mph - N/A   Unknown
11:56 PM 32.0 °F 21.6 °F - N/A% 29.97 in - East 15.0 mph - N/A   Unknown